[[{"header":{"parameterUnit":"m.s-1","parameterCategory":1,"la1":30.2991,"la2":30.254,"lo1":-89.0895,"lo2":-89.0444,"dy":0.0017,"dx":0.0017,"nx":28,"ny":28,"refTime":"2024-03-18T09:00:00:Z","depth":0,"parameterNumber":2,"parameterNumberName":"U-component_of_WINDS"},"data":[0,0,0,0,0,0,0,0,0,0,0,0,0,0,0,0,0,0,0,0,0,0,0,0,0,0,0,0,0,0,0,0,0,0,0,0,0,0,0,0,0,0,0,0,0,0,0,0,0,0,0,0,0,0,0,0,0,0,0.271,0.2709,0,0.2649,0.2649,0.2648,0.2634,0.2635,0.2635,0.2636,0.2573,0.2571,0.2569,0,0,0,0,0,0,0,0,0,0,0,0,0,0.2812,0.281,0.271,0.2709,0.2708,0.2649,0.2649,0.2648,0.2634,0.2635,0.2635,0.2636,0.2573,0.2571,0.2568,0,0,0,0,0,0,0,0,0,0,0,0,0,0.2761,0.281,0.271,0.2694,0.2692,0.265,0.2649,0.2648,0.2634,0.2635,0.2636,0.2636,0.2574,0.2571,0.2568,0.2536,0,0,0.2558,0.2557,0,0,0,0,0,0,0,0,0.2764,0.2758,0.2697,0.2695,0.2693,0.265,0.2662,0.261,0.2634,0.2656,0.2636,0.2636,0.2598,0.2593,0.258,0.2533,0.253,0.2558,0.2556,0.2555,0.2554,0,0,0,0,0,0,0,0.2768,0.276,0.2686,0.2697,0.2694,0.269,0.2684,0.2652,0.2624,0.2654,0.2653,0.2646,0.2597,0.2583,0.2578,0.2529,0.2558,0.2555,0.2554,0.2552,0.2453,0.2452,0,0,0,0,0,0,0.2774,0.2763,0.2688,0.2684,0.2731,0.2688,0.2681,0.2663,0.2624,0.2619,0.2646,0.2646,0.2588,0.2582,0.2576,0.2535,0.2555,0.2552,0.255,0.2453,0.2452,0.2452,0,0,0,0,0,0,0.2776,0.2768,0.269,0.2723,0.2713,0.2685,0.2666,0.2662,0.2648,0.2618,0.2613,0.2637,0.2588,0.2581,0.2546,0.2533,0.2551,0.2548,0.2454,0.2453,0.2452,0.2454,0,0,0,0,0,0,0.2779,0.2769,0.2756,0.2723,0.2711,0.2661,0.2665,0.266,0.2643,0.2642,0.2608,0.2603,0.2588,0.2551,0.2543,0.2529,0.2545,0.2455,0.2454,0.2452,0.2455,0.2453,0.2451,0,0,0,0,0,0.2783,0.2759,0.2755,0.2746,0.2695,0.266,0.2654,0.2637,0.2642,0.2629,0.261,0.2604,0.2536,0.2547,0.2538,0.2523,0.2456,0.2454,0.2452,0.2456,0.2453,0.2451,0,0,0,0,0,0,0.279,0.2754,0.275,0.2714,0.2691,0.2658,0.2641,0.2635,0.2609,0.261,0.259,0.2583,0.2549,0.2533,0.2546,0.249,0.2496,0.2493,0.2502,0.2499,0.2497,0.2501,0.2543,0,0,0,0,0,0.2788,0.2763,0.2733,0.2704,0.2692,0.2669,0.2653,0.2643,0.2617,0.2607,0.2585,0.256,0.2533,0.2515,0.2489,0.2453,0.2445,0.2438,0.2437,0.2435,0.2432,0.2411,0.2408,0.2446,0.2446,0.2446,0,0,0.2782,0.2759,0.2745,0.2705,0.2685,0.2659,0.266,0.2633,0.2613,0.2602,0.2568,0.2552,0.2523,0.2487,0.2471,0.2473,0.242,0.2433,0.2432,0.2429,0.2409,0.2406,0.2402,0.2445,0.2445,0.2445,0,0,0.2758,0.2739,0.2713,0.2693,0.2664,0.2649,0.2643,0.2611,0.26,0.2566,0.2557,0.2533,0.2487,0.2467,0.245,0.242,0.2414,0.2412,0.2402,0.2382,0.2379,0.2376,0.2365,0.2361,0.2409,0.2409,0.2409,0,0.2754,0.2715,0.27,0.2673,0.2655,0.2645,0.2618,0.26,0.2563,0.2551,0.2555,0.2497,0.2476,0.2436,0.2429,0.2416,0.2408,0.2415,0.2381,0.2378,0.2375,0.2364,0.236,0.2409,0.2409,0.2409,0.2409,0,0.2712,0.2685,0.2668,0.2633,0.2614,0.2587,0.2567,0.2549,0.2541,0.2526,0.2491,0.2467,0.2435,0.2425,0.2416,0.2383,0.2385,0.2385,0.239,0.2372,0.2361,0.2356,0.2409,0.2409,0.2409,0.2409,0,0,0.2689,0.2647,0.2641,0.2625,0.2592,0.2571,0.2544,0.2513,0.2498,0.2474,0.245,0.2412,0.2412,0.2393,0.2382,0.2365,0.2342,0.2367,0.2366,0.2362,0.2303,0.2302,0.2297,0.2338,0.2338,0.2337,0.2305,0,0.266,0.2612,0.2597,0.2556,0.2531,0.2522,0.2498,0.2475,0.246,0.2437,0.242,0.2393,0.2396,0.2384,0.2367,0.2348,0.2329,0.2351,0.2315,0.2314,0.2321,0.2292,0.2291,0.2262,0.2301,0.23,0.2299,0,0.262,0.2595,0.2551,0.2522,0.2511,0.249,0.2461,0.2439,0.2413,0.2403,0.2383,0.2374,0.2345,0.2354,0.2313,0.2328,0.2313,0.2302,0.23,0.2295,0.2304,0.2284,0.2252,0.2247,0.2293,0.2293,0.2294,0,0.2606,0.2562,0.253,0.2517,0.2482,0.2468,0.2453,0.2428,0.241,0.2385,0.2373,0.2345,0.2329,0.2308,0.2291,0.2299,0.2252,0.2259,0.2242,0.2243,0.2231,0.2232,0.2195,0.2224,0.2224,0.2224,0.2225,0,0.2575,0.2548,0.2524,0.2504,0.2474,0.2458,0.2429,0.2413,0.2391,0.2368,0.2359,0.2337,0.2317,0.2293,0.228,0.2248,0.2241,0.2232,0.2229,0.2232,0.2233,0.2221,0.2222,0.2223,0.2224,0.2224,0.2224,0,0.2553,0.2536,0.2501,0.2471,0.2463,0.2442,0.2417,0.2397,0.2383,0.2354,0.2346,0.2323,0.2294,0.2276,0.2239,0.223,0.2195,0.2193,0.2203,0.2201,0.2185,0.2187,0.2138,0.213,0.2166,0.2166,0.2165,0,0.2534,0.2513,0.2482,0.2466,0.245,0.2425,0.2407,0.2391,0.2373,0.2343,0.2327,0.2298,0.2273,0.2227,0.2207,0.2179,0.2175,0.216,0.217,0.2174,0.2173,0.2174,0.2171,0.2157,0.2157,0.2157,0.2157,0,0.25,0.2493,0.2468,0.244,0.242,0.2397,0.2374,0.2362,0.2342,0.2322,0.2293,0.2274,0.2237,0.2207,0.2177,0.2161,0.2155,0.2154,0.2148,0.215,0.2157,0.2152,0.2197,0.2155,0.2155,0.2155,0.2155,0.2155,0.2478,0.2459,0.2434,0.2407,0.2388,0.2367,0.2347,0.2331,0.2306,0.2275,0.2267,0.2236,0.2211,0.217,0.2154,0.2129,0.2131,0.2124,0.2121,0.2119,0.2118,0.2163,0.2124,0.2124,0.2124,0.2124,0.2124,0,0.2443,0.2426,0.2402,0.237,0.2349,0.2346,0.2321,0.2303,0.2276,0.2254,0.223,0.2196,0.2168,0.2146,0.2117,0.2102,0.2098,0.2094,0.2094,0.2091,0.2119,0.2126,0.2098,0.2098,0.2098,0.2098,0.2098,0.2098,0.2422,0.2389,0.2379,0.2338,0.2322,0.2291,0.2277,0.2258,0.224,0.2203,0.2179,0.2166,0.2143,0.2113,0.2087,0.2081,0.207,0.2066,0.206,0.2086,0.2089,0.2092,0.2098,0.2065,0.2065,0.2034,0.2034,0.2033]},{"header":{"parameterUnit":"m.s-1","parameterCategory":1,"la1":30.2991,"la2":30.254,"lo1":-89.0895,"lo2":-89.0444,"dy":0.0017,"dx":0.0017,"nx":28,"ny":28,"refTime":"2024-03-18T09:00:00:Z","depth":0,"parameterNumber":3,"parameterNumberName":"V-component_of_WINDS"},"data":[0,0,0,0,0,0,0,0,0,0,0,0,0,0,0,0,0,0,0,0,0,0,0,0,0,0,0,0,0,0,0,0,0,0,0,0,0,0,0,0,0,0,0,0,0,0,0,0,0,0,0,0,0,0,0,0,0,0,-5.804,-5.804,0,-5.808,-5.8081,-5.8081,-5.8014,-5.8012,-5.801,-5.8008,-5.8045,-5.8048,-5.8051,0,0,0,0,0,0,0,0,0,0,0,0,0,-5.79,-5.7903,-5.804,-5.804,-5.8041,-5.808,-5.8081,-5.8081,-5.8015,-5.8012,-5.8009,-5.8007,-5.8044,-5.8048,-5.8051,0,0,0,0,0,0,0,0,0,0,0,0,0,-5.7953,-5.7904,-5.8039,-5.8012,-5.801,-5.808,-5.8081,-5.8081,-5.8015,-5.8012,-5.8009,-5.8005,-5.8043,-5.8047,-5.8052,-5.8148,0,0,-5.8066,-5.8068,0,0,0,0,0,0,0,0,-5.795,-5.7958,-5.8016,-5.8014,-5.8012,-5.8039,-5.8045,-5.8104,-5.8016,-5.8013,-5.8008,-5.8004,-5.8045,-5.805,-5.8064,-5.815,-5.8152,-5.8066,-5.8069,-5.8071,-5.8073,0,0,0,0,0,0,0,-5.7946,-5.7956,-5.8055,-5.8017,-5.8015,-5.7997,-5.8,-5.8056,-5.8048,-5.8013,-5.8009,-5.8015,-5.8044,-5.806,-5.8065,-5.8152,-5.8066,-5.807,-5.8073,-5.8075,-5.8319,-5.8323,0,0,0,0,0,0,-5.7946,-5.7953,-5.8054,-5.8057,-5.7972,-5.8002,-5.8006,-5.8034,-5.8047,-5.8046,-5.8017,-5.8011,-5.8054,-5.8059,-5.8066,-5.818,-5.8071,-5.8076,-5.8078,-5.8316,-5.832,-5.8324,0,0,0,0,0,0,-5.7944,-5.7956,-5.8052,-5.8004,-5.8015,-5.8008,-5.8039,-5.8036,-5.8053,-5.805,-5.8048,-5.8036,-5.8051,-5.8059,-5.8129,-5.818,-5.8078,-5.8082,-5.8311,-5.8317,-5.8322,-5.8409,0,0,0,0,0,0,-5.794,-5.7956,-5.7993,-5.8005,-5.8018,-5.8116,-5.8043,-5.8039,-5.8061,-5.8054,-5.8067,-5.8066,-5.8049,-5.8122,-5.8133,-5.8185,-5.8085,-5.8307,-5.8314,-5.832,-5.8402,-5.8417,-5.843,0,0,0,0,0,-5.7935,-5.8015,-5.7995,-5.8008,-5.8065,-5.8119,-5.8126,-5.8107,-5.8066,-5.8103,-5.8101,-5.8066,-5.8173,-5.813,-5.8142,-5.8196,-5.8303,-5.8312,-5.832,-5.8395,-5.8414,-5.843,0,0,0,0,0,0,-5.8007,-5.8016,-5.7994,-5.8081,-5.81,-5.8108,-5.8154,-5.8127,-5.8157,-5.8149,-5.8122,-5.8125,-5.82,-5.8205,-5.8156,-5.829,-5.8231,-5.8242,-5.8284,-5.8302,-5.8316,-5.8313,-5.8089,0,0,0,0,0,-5.8034,-5.8079,-5.8083,-5.8159,-5.817,-5.8161,-5.8184,-5.8167,-5.8186,-5.8193,-5.8196,-5.8214,-5.8252,-5.8277,-5.8312,-5.8402,-5.8404,-5.8445,-5.8459,-5.8471,-5.8481,-5.8529,-5.8547,-5.8351,-5.8351,-5.8351,0,0,-5.8088,-5.8098,-5.8128,-5.8174,-5.8187,-5.8233,-5.8168,-5.8219,-5.8253,-5.82,-5.8266,-5.827,-5.8288,-5.8368,-5.8404,-5.8374,-5.8535,-5.8482,-5.8491,-5.8494,-5.8539,-5.8557,-5.8574,-5.8357,-5.8356,-5.8355,0,0,-5.821,-5.8223,-5.8287,-5.8302,-5.8324,-5.8317,-5.8333,-5.8345,-5.8346,-5.8412,-5.8374,-5.8412,-5.8478,-5.8493,-5.8509,-5.8638,-5.8606,-5.865,-5.8724,-5.8771,-5.8786,-5.88,-5.8845,-5.8862,-5.8659,-5.866,-5.866,0,-5.8274,-5.8344,-5.8323,-5.8378,-5.8399,-5.8356,-5.842,-5.8435,-5.8466,-5.8481,-5.8448,-5.853,-5.8539,-5.8622,-5.8654,-5.8668,-5.8684,-5.8648,-5.8786,-5.8799,-5.8812,-5.8855,-5.8872,-5.8665,-5.8664,-5.8664,-5.8663,0,-5.8421,-5.847,-5.8519,-5.8553,-5.8579,-5.8638,-5.8626,-5.8655,-5.8636,-5.8633,-5.8701,-5.8711,-5.8747,-5.8765,-5.8747,-5.8846,-5.8827,-5.8791,-5.8731,-5.8836,-5.8876,-5.8892,-5.8672,-5.867,-5.8669,-5.8668,0,0,-5.8589,-5.8611,-5.863,-5.8644,-5.8665,-5.8702,-5.8759,-5.8796,-5.8821,-5.8844,-5.889,-5.8947,-5.8914,-5.8932,-5.8915,-5.8957,-5.9058,-5.8915,-5.8915,-5.8941,-5.9167,-5.9194,-5.9214,-5.9037,-5.904,-5.9043,-5.9166,0,-5.871,-5.8811,-5.8795,-5.8891,-5.8936,-5.8895,-5.8945,-5.8962,-5.8961,-5.8997,-5.8995,-5.9036,-5.8989,-5.9,-5.9039,-5.9037,-5.9103,-5.9028,-5.9079,-5.9081,-5.9075,-5.9235,-5.9264,-5.9379,-5.9181,-5.9184,-5.9186,0,-5.8865,-5.8896,-5.8998,-5.9012,-5.903,-5.9076,-5.9108,-5.9144,-5.9162,-5.9158,-5.918,-5.9155,-5.9211,-5.9151,-5.9227,-5.9177,-5.9196,-5.9199,-5.9203,-5.9206,-5.9139,-5.9242,-5.9416,-5.9433,-5.921,-5.9208,-5.9207,0,-5.8978,-5.9044,-5.9114,-5.9127,-5.9146,-5.9179,-5.9188,-5.9203,-5.9226,-5.9254,-5.9269,-5.9303,-5.9321,-5.9347,-5.9332,-5.929,-5.941,-5.9349,-5.9407,-5.9408,-5.9434,-5.9432,-5.9612,-5.9448,-5.9447,-5.9447,-5.9447,0,-5.9115,-5.9178,-5.9164,-5.9207,-5.9277,-5.9257,-5.9327,-5.933,-5.9345,-5.9386,-5.9353,-5.9392,-5.937,-5.9408,-5.9396,-5.946,-5.9469,-5.9466,-5.9462,-5.9469,-5.9469,-5.9481,-5.9472,-5.9452,-5.9451,-5.945,-5.9449,0,-5.9251,-5.9245,-5.9318,-5.933,-5.9335,-5.9386,-5.9395,-5.9434,-5.9431,-5.9484,-5.9495,-5.9489,-5.9532,-5.952,-5.9565,-5.9557,-5.9639,-5.9625,-5.9633,-5.9629,-5.9688,-5.9683,-5.9882,-5.9906,-5.9726,-5.9728,-5.973,0,-5.9339,-5.9387,-5.9406,-5.9432,-5.9444,-5.9487,-5.9511,-5.9494,-5.952,-5.9546,-5.9582,-5.9622,-5.9652,-5.9722,-5.9721,-5.9755,-5.9741,-5.9809,-5.9746,-5.9752,-5.9742,-5.9739,-5.9743,-5.9821,-5.9823,-5.9825,-5.9826,0,-5.9495,-5.949,-5.9527,-5.9564,-5.9594,-5.9622,-5.9645,-5.9669,-5.9653,-5.9684,-5.9728,-5.9752,-5.98,-5.9839,-5.9871,-5.9878,-5.985,-5.9846,-5.9861,-5.9868,-5.9871,-5.987,-5.9667,-5.9841,-5.984,-5.9839,-5.9838,-5.9837,-5.961,-5.9651,-5.9671,-5.9713,-5.973,-5.9754,-5.9791,-5.9794,-5.9831,-5.9869,-5.9856,-5.9906,-5.9923,-5.9963,-5.9975,-6.0013,-5.9987,-6.0009,-6.0015,-6.002,-6.0028,-5.9866,-6.0019,-6.0018,-6.0018,-6.0017,-6.0017,0,-5.9764,-5.9775,-5.9815,-5.9851,-5.9884,-5.9856,-5.9881,-5.9911,-5.9956,-5.9975,-6.0007,-6.0058,-6.0096,-6.0099,-6.0134,-6.0164,-6.0152,-6.0174,-6.0171,-6.0174,-6.0049,-6.0032,-6.0184,-6.0184,-6.0184,-6.0184,-6.0184,-6.0184,-5.9848,-5.9917,-5.9914,-5.999,-6.0,-6.0051,-6.0068,-6.0089,-6.0104,-6.0163,-6.0195,-6.0197,-6.0209,-6.0246,-6.028,-6.0279,-6.0294,-6.0321,-6.0316,-6.0199,-6.0182,-6.0167,-6.0151,-6.0325,-6.0325,-6.0437,-6.0438,-6.0439]}]]